Terug naar catalogus

BREEZE-M DEB

LostHEO
NORAD 38628·DEBRIS·🇷🇺 Russia

Gelanceerd Mar 14, 2008 vanaf Baikonur Cosmodrome

Loading…

Volgende Passages (komende 24 uur)

TLE

VerouderdSource: Space-Track

Epoch: Mar 11, 2016, 09:24 UTC

1 38628U 08011CB  16071.39190343  .00001856  00000-0  52750-2 0  9995
2 38628  48.7897 173.5329 6533135 223.5434 141.3492  3.13123694 49055

Volg BREEZE-M DEB in realtime met AllMySat

Download on the App Store